Location: Laguna de la Cañada del Gallo
(40.3974°N, 5.2096°W)
Time: 12:44:55
(UTC+00:00)

SJ 16-02 - Pass Details

Date: 18 April 2024
Orbit: 595 x 605 km, 75.0° (Epoch: 27 May)

Event Time Altitude Azimuth Distance (km) Brightness Sun altitude
Rises 19:39:38 0° 339° (NNW) 2,847 5.5 -7.4°
Reaches altitude 10° 19:41:53 10° 336° (NNW) 1,939 4.6 -7.8°
Maximum altitude 19:46:10 64° 255° (WSW) 661 1.8 -8.5°
Drops below altitude 10° 19:50:24 10° 174° (S) 1,922 3.6 -9.3°
Sets 19:52:37 0° 171° (S) 2,819 4.4 -9.6°
